Garissa, Kenya

12:46 AM EAT on December 17, 2017 (GMT +0300)
Garissa

Weather History for HKGA - December, 2012

Change the Weather History Date:

Sunday, December 9, 2012

  Actual Average Record
Temperature  
Mean Temperature 84 °F -  
Max Temperature 93 °F 97 °F - ()
Min Temperature 76 °F 73 °F - ()
Cooling Degree Days 20    
Growing Degree Days 34 (Base 50)    
Moisture  
Dew Point 72 °F    
Average Humidity 68    
Maximum Humidity 94    
Minimum Humidity 41    
Precipitation  
Precipitation 0.00 in - - ()
Sea Level Pressure  
Sea Level Pressure 29.84 in    
Wind  
Wind Speed 3 mph ()    
Max Wind Speed 7 mph    
Max Gust Speed -    
Visibility 8.2 miles    
Events      
T = Trace of Precipitation, MM = Missing Value Source: Averaged Metar Reports

Daily Weather History Graph

Daily Weather History Graph

Search for Another Location

Airport or City:

Trip Planner

Search our weather history database for the weather conditions in past years. The results will help you decide how hot, cold, wet, or windy it might be!

Date:

Astronomy

Dec. 09, 2012 Rise Set
Actual Time 6:09 AM EAT 6:18 PM EAT
Civil Twilight 5:47 AM EAT 6:40 PM EAT
Nautical Twilight 5:20 AM EAT 7:07 PM EAT
Astronomical Twilight 4:54 AM EAT 7:33 PM EAT
Moon 2:05 AM EAT (12/9) 2:31 PM EAT (12/9)
Length of Visible Light 12h 53m
Length of Day
12h 09m
Waning Crescent, 22% of the Moon is Illuminated
Dec 9
Waning Crescent
Dec 13
New
Dec 20
First Quarter
Dec 28
Full
Jan 5
Last Quarter

Hourly Weather History & Observations

Time (EAT) Temp. Heat Index Dew Point Humidity Pressure Visibility Wind Dir Wind Speed Gust Speed Precip Events Conditions
1:00 AM 77.0 °F - 73.4 °F 89% 29.89 in - Calm Calm - N/A   Clear
2:00 AM 77.0 °F - 73.4 °F 89% 29.89 in - South 3.5 mph - N/A   Clear
3:00 AM 78 °F - 72 °F 77% 30.19 in 19 mi South 4.6 mph - -   Mostly Cloudy
4:00 AM 77.0 °F - 71.6 °F 83% 29.86 in - SSE 5.8 mph - N/A   Clear
5:00 AM 77.0 °F - 71.6 °F 83% 29.86 in 6.2 mi South 6.9 mph - N/A   Mostly Cloudy
6:00 AM 77.0 °F - 75.2 °F 94% 29.89 in 6.2 mi SE 3.5 mph - N/A   Mostly Cloudy
7:00 AM 78.8 °F - 75.2 °F 89% 29.89 in 6.2 mi South 4.6 mph - N/A   Scattered Clouds
8:00 AM 80.6 °F 86.2 °F 75.2 °F 84% 29.89 in 6.2 mi SE 4.6 mph - N/A   Mostly Cloudy
9:00 AM 82 °F - 75 °F 75% 29.89 in 25 mi Calm Calm - -   Mostly Cloudy
10:00 AM 86.0 °F 95.1 °F 75.2 °F 70% 29.89 in 6.2 mi ESE 5.8 mph - N/A   Mostly Cloudy
11:00 AM 86.0 °F 95.1 °F 75.2 °F 70% 29.86 in 6.2 mi SSE 4.6 mph - N/A   Mostly Cloudy
1:00 PM 89.6 °F 98.2 °F 73.4 °F 59% 29.77 in 6.2 mi North 5.8 mph - N/A   Mostly Cloudy
2:00 PM 91.4 °F 100.1 °F 73.4 °F 55% 29.80 in 6.2 mi SE 3.5 mph - N/A   Mostly Cloudy
3:00 PM 92 °F - 71 °F 41% 29.75 in 25 mi Calm Calm - -   Mostly Cloudy
4:00 PM 93.2 °F 97.7 °F 68.0 °F 44% 29.74 in 6.2 mi ENE 6.9 mph - N/A   Scattered Clouds
5:00 PM 93.2 °F 96.2 °F 66.2 °F 41% 29.74 in 6.2 mi ENE 4.6 mph - N/A   Scattered Clouds
7:00 PM 89.6 °F 92.2 °F 66.2 °F 46% 29.77 in 6.2 mi ENE 3.5 mph - N/A   Scattered Clouds
8:00 PM 87.8 °F 91.4 °F 68.0 °F 52% 29.77 in - ENE 5.8 mph - N/A   Clear
9:00 PM 85 °F - 70 °F 52% 29.78 in 19 mi Calm Calm - -   Scattered Clouds
10:00 PM 84.2 °F 89.6 °F 71.6 °F 66% 29.80 in - Calm Calm - N/A   Clear
11:00 PM 82.4 °F 87.2 °F 71.6 °F 70% 29.80 in - ESE 5.8 mph - N/A   Clear